Orbital Elements at Epoch 2459000.5 (2020-May-31.0) TDB
Reference: JPL 26 (heliocentric ecliptic J2000)
Element | Value | Uncertainty (1-sigma) | Units |
e | .279547481667239 | 4.5958e-08 | |
a | 2.672453744336301 | 1.4354e-08 | au |
q | 1.925376030234905 | 1.2473e-07 | au |
i | 27.76926558021723 | 5.0037e-06 | deg |
node | 119.1099018721856 | 1.0834e-05 | deg |
peri | 288.5772081228216 | 1.3611e-05 | deg |
M | 110.2878142216006 | 9.5947e-06 | deg |
tp | 2458511.635218454070 (2019-Jan-28.13521845) | 4.0443e-05 | TDB |
period | 1595.745845528468 4.37 | 1.2856e-05 3.52e-08 | d yr |
n | .2255998353426874 | 1.8175e-09 | deg/d |
Q | 3.419531458437697 | 1.8366e-08 | au |
|
| | Orbit Determination Parameters
Additional Information
|